DW0805 Weather Reports


time (UTC)temp
C
wind
direction
speed
KPH
gust
KPH
rain 1hr
cm
rain 24hr
cm
rain mn
cm
humidity
%
barometer
mb
20260506034513 3 30 0.0 3.2 0.00 0.00 0.00 75 1010.9
20260506033512 3 30 0.0 4.8 0.00 0.00 0.00 74 1011.0
20260506032513 3 38 3.2 4.8 0.00 0.00 0.00 74 1011.0
20260506031512 3 20 0.0 4.8 0.00 0.00 0.00 73 1011.0
20260506030513 4 10 1.6 4.8 0.00 0.00 0.00 71 1011.1
20260506023512 5 42 3.2 9.7 0.00 0.00 0.00 71 1011.2
20260506022513 5 31 1.6 8.0 0.00 0.00 0.00 72 1011.3
20260506020513 6 55 0.0 4.8 0.00 0.00 0.00 68 1011.4
20260506015513 6 53 1.6 9.7 0.00 0.00 0.00 66 1011.5
20260506003513 6 20 3.2 11.3 0.00 0.00 0.00 75 1011.0
20260506000512 6 44 4.8 11.3 0.00 0.00 0.00 79 1010.9
20260505235513 6 33 4.8 9.7 0.00 0.00 0.00 81 1011.0
20260505232512 5 33 3.2 11.3 0.00 0.00 0.00 86 1011.0
20260505231513 5 28 1.6 8.0 0.00 0.00 0.00 87 1011.0
20260505230512 5 3 1.6 4.8 0.00 0.00 0.00 87 1011.1
20260505225512 5 22 1.6 4.8 0.00 0.00 0.00 87 1011.1
20260505221509 5 5 1.6 8.0 0.00 0.00 0.00 88 1011.2
20260505214514 4 9 1.6 4.8 0.00 0.00 0.00 88 1011.3
20260505213512 4 5 1.6 4.8 0.00 0.00 0.00 87 1011.3
20260505210513 4 349 1.6 3.2 0.00 0.00 0.00 84 1011.5
20260505205512 5 349 1.6 3.2 0.00 0.00 0.00 83 1011.4
20260505203513 5 349 0.0 3.2 0.00 0.00 0.00 82 1011.4
20260505201513 6 349 0.0 1.6 0.00 0.00 0.00 80 1011.4
20260505195513 6 349 0.0 3.2 0.00 0.00 0.00 78 1011.5
20260505194513 6 349 1.6 8.0 0.00 0.00 0.00 76 1011.5
20260505190513 8 355 0.0 1.6 0.00 0.00 0.00 70 1011.4
20260505183513 9 350 1.6 8.0 0.00 0.00 0.00 65 1011.1
20260505182513 10 355 3.2 8.0 0.00 0.00 0.00 63 1011.1
20260505174513 11 18 4.8 12.9 0.00 0.00 0.00 53 1011.1
20260505172513 11 356 6.4 14.5 0.00 0.00 0.00 54 1011.1
20260505171514 12 15 4.8 14.5 0.00 0.00 0.00 53 1011.2
20260505161513 12 23 8.0 16.1 0.00 0.00 0.00 57 1011.2
20260505160513 13 7 9.7 19.3 0.00 0.00 0.00 58 1011.3
20260505152514 13 0 9.7 20.9 0.00 0.00 0.00 56 1011.4
20260505140513 13 346 9.7 24.1 0.00 0.00 0.00 62 1011.4
20260505124514 13 331 9.7 16.1 0.00 0.00 0.00 61 1011.5
20260505120513 13 303 9.7 22.5 0.00 0.00 0.00 65 1011.6
20260505115513 13 331 11.3 20.9 0.00 0.00 0.00 63 1011.6
20260505114513 13 350 9.7 19.3 0.00 0.00 0.00 65 1011.7
20260505113512 13 349 9.7 22.5 0.00 0.00 0.00 63 1011.7
20260505112513 13 347 9.7 24.1 0.00 0.00 0.00 64 1011.5
20260505101514 12 356 9.7 19.3 0.00 0.00 0.00 71 1011.8
20260505095514 12 305 11.3 16.1 0.00 0.00 0.00 72 1011.8
20260505094513 12 347 9.7 20.9 0.00 0.00 0.00 73 1011.8
20260505091513 12 304 9.7 22.5 0.00 0.00 0.00 69 1011.7
20260505085514 12 2 4.8 19.3 0.00 0.00 0.00 72 1011.7
20260505081515 11 334 8.0 19.3 0.00 0.03 0.00 74 1011.6
20260505075513 12 311 8.0 16.1 0.00 0.03 0.00 75 1011.4
20260505073513 11 333 9.7 22.5 0.00 0.03 0.00 78 1011.4
20260505071513 10 338 12.9 19.3 0.00 0.03 0.00 80 1011.4
20260505065513 10 356 8.0 16.1 0.00 0.03 0.00 83 1011.3
20260505064513 10 322 8.0 22.5 0.00 0.03 0.00 81 1011.3
20260505063513 10 309 9.7 24.1 0.00 0.03 0.00 81 1011.2
20260505062513 10 307 11.3 16.1 0.00 0.03 0.00 80 1011.3
20260505055513 10 318 9.7 19.3 0.00 0.03 0.00 81 1011.2
20260505054513 9 289 9.7 20.9 0.00 0.03 0.00 82 1011.3
20260505053513 9 310 9.7 20.9 0.00 0.03 0.00 83 1011.2
20260505052514 8 342 9.7 19.3 0.00 0.03 0.00 85 1011.2
20260505041513 8 308 3.2 12.9 0.00 0.03 0.00 88 1011.1
20260505040512 7 337 4.8 9.7 0.00 0.03 0.00 88 1011.0
20260505035513 7 319 4.8 9.7 0.00 0.03 0.00 88 1011.0